Regional Weather Roundup
Issued by NWS Sterling, VA

Home | Current Version | Previous Version | Text Only | Print | Product List | Glossary Off
Versions: 1 2 3 4 5 6 7 8 9 10 11 12 13 14 15 16 17 18 19 20 21 22 23 24 25 26 27 28

000
ASUS41 KLWX 150511
RWRLWX

REGIONAL WEATHER ROUNDUP
NATIONAL WEATHER SERVICE BALTIMORE MD/WASHINGTON DC
1200 AM EST MON JAN 15 2018

Note: "FAIR" indicates few or no clouds below 12,000 feet
with no significant weather and/or obstructions to visibility.
 TC=TEMPERATURE CELSIUS

 * =Non NWS site. Station does not report precipitation (e.g. rain,
    snow, etc.), thunder, or fog.

DCZ001-MDZ009-015-VAZ040>042-051-053>054-150600-
WASHINGTON METRO

CITY           SKY/WX    TMP DP  RH WIND       PRES   REMARKS
WASHINGTON NAT MOCLDY    21   5  50 N8        30.65F WCI  11
DULLES         MOCLDY    17   5  59 N6        30.63F WCI   9
ANDREWS AFB    FAIR      16   5  63 N7        30.61F WCI   6
FT BELVOIR     FAIR      18   6  61 CALM      30.64F
QUANTICO       FAIR      21   7  54 N6        30.65F WCI  13
COLLEGE PARK*  FAIR      17   4  56 N3        30.65F
LEESBURG*      FAIR      18   9  68 N3        30.64F
MANASSAS*      FAIR      15   7  70 N5        30.64F WCI   8
GAITHERSBURG*  FAIR      14   5  67 CALM      30.62S

$$

MDZ006>007-011-014-150600-
BALTIMORE METRO

CITY           SKY/WX    TMP DP  RH WIND       PRES   REMARKS
BWI AIRPORT    MOCLDY    16   6  65 NW3       30.64S
MD SCIENCE CTR   N/A     21   5  50 MISG      30.66F
MARTIN STATE   FAIR      19  10  68 NW3       30.67S
ANNAPOLIS      FAIR      24  12  60 N7        30.64F WCI  16
FORT MEADE*    FAIR      16   9  73 CALM      30.66F

$$

MDZ012-015-019>023-150600-
MARYLAND EASTERN SHORE

CITY           SKY/WX    TMP DP  RH WIND       PRES   REMARKS
OCEAN CITY     CLOUDY    21  13  71 N8        30.61R WCI  11
SALISBURY      FAIR      17   9  70 N5        30.61S WCI  10
BAY BRIDGE AP* FAIR      21   7  53 NE3       30.64F
CAMBRIDGE*     CLEAR     19   9  63 N6        30.63S WCI  11
EASTON*        FAIR      19   8  63 N3        30.66F

$$

MDZ017>025-150600-
SOUTHERN MARYLAND

CITY           SKY/WX    TMP DP  RH WIND       PRES   REMARKS
PATUXENT RIVER FAIR      22   9  57 NE8       30.63S WCI  12
ST INIGOES     FAIR      22   8  55 N5        30.63S WCI  16
LEONARDTOWN*   FAIR      19  10  68 CALM      30.64S

$$

MDZ003>005-150600-
NORTH CENTRAL MARYLAND

CITY           SKY/WX    TMP DP  RH WIND       PRES   REMARKS
FREDERICK*     FAIR      16   5  62 CALM      30.67S
HAGERSTOWN APT FAIR      15   4  61 N3        30.60F
WESTMINSTER*   FAIR      12   7  79 CALM      30.59S

$$

MDZ501>502-150600-
WESTERN MARYLAND

CITY           SKY/WX    TMP DP  RH WIND       PRES   REMARKS
OAKLAND*       FAIR       7   0  72 SE12G17   30.32F WCI  -9
CUMBERLAND*    FAIR     N/A N/A N/A CALM      30.63F

$$

VAZ025>031-150600-
SHENANDOAH VALLEY

CITY           SKY/WX    TMP DP  RH WIND       PRES   REMARKS
WINCHESTER*    FAIR      12   5  73 CALM      30.61R
FRONT ROYAL*   FAIR      12   9  85 MISG      30.59S
LURAY*         FAIR      12   9  85 CALM      30.58S
NEW MARKET*    FAIR      10   3  75 CALM      30.57S
STAUNTON*      FAIR      11   5  76 CALM      30.56F
WAYNESBORO*    FAIR      14   6  72 CALM      30.52F

$$

WVZ021-048>050-054>055-150600-
EASTERN WEST VIRGINIA PANHANDLE

CITY           SKY/WX    TMP DP  RH WIND       PRES   REMARKS
MARTINSBURG    FAIR      15   5  64 N3        30.61S
PETERSBURG*    FAIR      11   6  79 CALM      30.56F

$$

VAZ036>039-050-150600-
CENTRAL FOOTHILLS

CITY           SKY/WX    TMP DP  RH WIND       PRES   REMARKS
CHARLOTTESVILL FAIR      19   4  51 N5        30.60S WCI  12
CULPEPER*      FAIR      15   6  66 CALM      30.64F
ORANGE*        FAIR      19   5  53 CALM      30.61F
GORDONSVILLE*  FAIR      18   3  51 MISG      30.61F
WARRENTON*     FAIR      17   4  58 N3        30.62F

$$

VAZ055>057-150600-
NORTH AND CENTRAL PIEDMONT

CITY           SKY/WX    TMP DP  RH WIND       PRES   REMARKS
FREDERICKSBRG* FAIR      20   8  59 N3        30.63F
STAFFORD*      FAIR      15   9  75 CALM      30.67F

$$

NCZ024-NYZ072-PAZ021-071-VAZ022-071-150600-
OTHER REGIONAL OBSERVATIONS

CITY           SKY/WX    TMP DP  RH WIND       PRES   REMARKS
NEW YORK CITY  FAIR      16   0  49 NE12      30.68F WCI   3
PHILADELPHIA   MOCLDY    20   2  45 NE10      30.67R WCI   9
PITTSBURGH     MOCLDY     9   3  77 E7        30.45F WCI  -2
ROANOKE        FAIR      17   5  59 SE8       30.53F WCI   7
RICHMOND       MOCLDY    19   8  62 N3        30.61F
RALEIGH        FAIR      22   5  48 NE9       30.55F WCI  12

$$

ANZ530>537-150600-
MARINE OBSERVATIONS

STATION/POSITION TIME  TEMP    WIND        PRES
                       AIR SEA DIR/SP/G
                 (UTC) (F)     (DEG/KT/KT) (MB)
THOMAS PT LIGHT  0500   24 32   40/ 10/ 12   N/A
BALT KEY BRIDGE  0442   20      20/  9/ 11 1038.0F
COVE POINT       0442   23      40/ 11/ 14 1037.8F
LEWISETTA        0442   24 34   40/  6/ 10 1037.1S
SOLOMONS ISLAND  0442   23 34   20/  6/  8 1036.9S
PINEY POINT      0448           20/  5/  6   N/A

$$





USA.gov is the U.S. government's official web portal to all federal, state and local government web resources and services.